This demonstration page uses our WeatherBlox Daily Observations layout. Learn more.

Left ArrowRight Arrow

44.8408, -93.29828

Hourly Observations for April 9, 2022

Temp ( °F °C ) Dew Point ( °F °C ) Humidity (%) Winds ( mph kmh ) Pressure ( in mb ) Visibility ( mi km ) Precip ( " mm )
12:53 am 00:53 Clear 35 1.7 15 -9.4 44 44 NNW 10 17 29.91 1013 10 16 0.00 0.00
1:53 am 01:53 Clear 33 0.6 15 -9.4 47 47 NW 8 13 29.90 1013 10 16 0.00 0.00
2:53 am 02:53 Clear 32 0 16 -8.9 52 52 NW 8 13 29.90 1013 10 16 0.00 0.00
3:53 am 03:53 Clear 29 -1.7 16 -8.9 58 58 NW 7 11 29.91 1013 10 16 0.00 0.00
4:53 am 04:53 Clear 30 -1.1 16 -8.9 56 56 WNW 3 6 29.91 1013 10 16 0.00 0.00
5:53 am 05:53 Clear 30 -1.1 15 -9.4 54 54 W 3 6 29.92 1013 10 16 0.00 0.00
6:53 am 06:53 Sunny 29 -1.7 16 -8.9 58 58 Calm 29.93 1014 10 16 0.00 0.00
7:53 am 07:53 Sunny 32 0 19 -7.2 59 59 Calm 29.93 1014 10 16 0.00 0.00
8:53 am 08:53 Sunny 38 3.3 17 -8.3 43 43 NE 5 7 29.93 1014 10 16 0.00 0.00
9:53 am 09:53 Sunny 41 5 15 -9.4 35 35 Calm 29.93 1014 10 16 0.00 0.00
10:53 am 10:53 Mostly Sunny 43 6.1 14 -10 31 31 WSW 3 6 29.93 1013 10 16 0.00 0.00
11:53 am 11:53 Mostly Sunny 47 8.3 10 -12.2 22 22 Calm 29.91 1013 10 16 0.00 0.00
12:53 pm 12:53 Mostly Sunny 49 9.4 9 -12.8 20 20 undefined N/A 29.90 1013 10 16 0.00 0.00
1:53 pm 13:53 Mostly Sunny 50 10 8 -13.3 18 18 SSW 5 7 29.88 1012 10 16 0.00 0.00
2:53 pm 14:53 Partly Cloudy 53 11.7 9 -12.8 17 17 S 6 9 29.85 1011 10 16 0.00 0.00
3:53 pm 15:53 Partly Cloudy 53 11.7 9 -12.8 17 17 VRB 3 6 29.83 1010 10 16 0.00 0.00
4:53 pm 16:53 Partly Cloudy 54 12.2 9 -12.8 16 16 SE 5 7 29.82 1010 10 16 0.00 0.00
5:53 pm 17:53 Partly Cloudy 53 11.7 12 -11.1 19 19 S 7 11 29.82 1010 10 16 0.00 0.00
6:53 pm 18:53 Mostly Cloudy 51 10.6 16 -8.9 25 25 SSE 6 9 29.82 1010 10 16 0.00 0.00
7:53 pm 19:53 Partly Cloudy 51 10.6 17 -8.3 26 26 SSE 8 13 29.81 1010 10 16 0.00 0.00
8:53 pm 20:53 Mostly Clear 47 8.3 20 -6.7 34 34 SSE 7 11 29.83 1010 10 16 0.00 0.00
9:53 pm 21:53 Clear 44 6.7 22 -5.6 41 41 SSE 7 11 29.85 1011 10 16 0.00 0.00
10:53 pm 22:53 Clear 42 5.6 22 -5.6 45 45 SE 8 13 29.85 1011 10 16 0.00 0.00
11:53 pm 23:53 Mostly Clear 41 5 23 -5 49 49 SE 8 13 29.83 1010 10 16 0.00 0.00

Powered by AerisWeather